Вернуться в каталог

SL-16 DEB

АктивенLEO
NORAD 39723·DEBRIS·🇷🇺 Russia

Запущен Dec 25, 1992 с Baikonur Cosmodrome

Loading…

Ближайшие Пролёты (ближайшие 24 часа)

TLE

СвежийSource: Space-Track

Эпоха: Sep 12, 2026, 16:16 UTC

1 39723U 92093KP  26255.67802457  .00001847  00000-0  68912-3 0  9995
2 39723  71.0906 241.0893 0049059  12.6705 347.5648 14.32563722252454

Отслеживайте SL-16 DEB в реальном времени с AllMySat

Download on the App Store